Location: Home
(42.5358°N, 72.7383°W)
Time: 16:01:44
(UTC-04:00)

Explorer 11/Cluster Stage 4 - Pass Details

Date: 11 August 2024
Orbit: 464 x 1208 km, 28.8° (Epoch: 19 September)

Event Time Altitude Azimuth Distance (km) Brightness Sun altitude
Rises 22:54:43 0° 222° (SW) 3,080 - -26.2°
Reaches altitude 10° 22:57:46 10° 201° (SSW) 2,309 - -26.5°
Maximum altitude 23:01:14 17° 162° (SSE) 2,024 - -26.9°
Drops below altitude 10° 23:05:08 10° 124° (SE) 2,649 - -27.2°
Sets 23:09:00 0° 106° (ESE) 3,756 - -27.6°
